Location: El Diablo
(32.4667°N, 116.4500°W)
Time: 00:56:23
(UTC+00:00)

Chandra Rocket (1) - Pass Details

Date: 10 September 2024
Orbit: 283 x 10834 km, 28.4° (Epoch: 06 October)

Event Time Altitude Azimuth Distance (km) Brightness Sun altitude
Exits shadow 12:16:14 28° 243° (WSW) 1,089 2.7 -15.4°
Maximum altitude 12:18:03 56° 175° (S) 881 2.7 -15.1°
Drops below altitude 10° 12:27:05 10° 100° (E) 4,425 7.5 -13.2°
Sets 12:33:48 0° 98° (E) 7,040 8.9 -11.9°
